When you browse on this site, cookies collect data to enhance your experience and personalize the content and advertising you see.
Visit our Privacy Policy to learn more. By continuing to use the site, you agree to this use of cookies and data.

Hourly Weather Budnye

Today, 10 July, Friday

Time Temperature Precipitation Wind Pressure Humidity
00:00 +11°C° 0 mm 3 mps 744 mmHg 88%
01:00 +11°C° 0 mm 3 mps 744 mmHg 89%
02:00 +11°C° 0 mm 3 mps 744 mmHg 90%
03:00 +12°C° 0 mm 4 mps 743 mmHg 88%
04:00 +12°C° 0 mm 4 mps 743 mmHg 86%
05:00 +13°C° 0 mm 4 mps 742 mmHg 84%
06:00 +13°C° 0.2 mm 5 mps 742 mmHg 87%
07:00 +14°C° 0.2 mm 5 mps 742 mmHg 89%
08:00 +14°C° 0.2 mm 5 mps 742 mmHg 92%
09:00 +15°C° 0.1 mm 5 mps 742 mmHg 91%
10:00 +16°C° 0.1 mm 5 mps 741 mmHg 91%
11:00 +17°C° 0.1 mm 5 mps 741 mmHg 90%
12:00 +20°C° 0.8 mm 5 mps 741 mmHg 89%
13:00 +21°C° 0.8 mm 6 mps 741 mmHg 87%
14:00 +22°C° 0.8 mm 6 mps 741 mmHg 86%
15:00 +22°C° 0.7 mm 5 mps 741 mmHg 86%
16:00 +22°C° 0.7 mm 5 mps 741 mmHg 87%
17:00 +22°C° 0.7 mm 4 mps 741 mmHg 87%
18:00 +22°C° 0.6 mm 4 mps 741 mmHg 89%
19:00 +21°C° 0.6 mm 3 mps 741 mmHg 91%
20:00 +20°C° 0.6 mm 3 mps 741 mmHg 92%
21:00 +20°C° 0.4 mm 3 mps 741 mmHg 93%
22:00 +19°C° 0.4 mm 3 mps 741 mmHg 94%
23:00 +19°C° 0.4 mm 4 mps 741 mmHg 95%

Tomorrow, 11 July, Saturday

Time Temperature Precipitation Wind Pressure Humidity
00:00 +19°C° 0.2 mm 4 mps 741 mmHg 94%
01:00 +19°C° 0.2 mm 5 mps 741 mmHg 94%
02:00 +19°C° 0.2 mm 5 mps 741 mmHg 93%
03:00 +19°C° 0.4 mm 5 mps 741 mmHg 94%
04:00 +19°C° 0.4 mm 5 mps 741 mmHg 95%
05:00 +19°C° 0.4 mm 5 mps 742 mmHg 96%
06:00 +19°C° 0.4 mm 5 mps 742 mmHg 94%
07:00 +19°C° 0.4 mm 5 mps 743 mmHg 91%
08:00 +19°C° 0.4 mm 5 mps 743 mmHg 88%
09:00 +19°C° 0 mm 4 mps 744 mmHg 83%
10:00 +20°C° 0 mm 4 mps 744 mmHg 77%
11:00 +20°C° 0 mm 4 mps 745 mmHg 72%
12:00 +20°C° 0 mm 4 mps 745 mmHg 69%
13:00 +21°C° 0 mm 3 mps 745 mmHg 66%
14:00 +21°C° 0 mm 3 mps 745 mmHg 63%
15:00 +20°C° 0 mm 3 mps 745 mmHg 67%
16:00 +19°C° 0 mm 3 mps 745 mmHg 71%
17:00 +18°C° 0 mm 3 mps 746 mmHg 75%
18:00 +17°C° 0 mm 3 mps 746 mmHg 75%
19:00 +17°C° 0 mm 3 mps 746 mmHg 75%
20:00 +16°C° 0 mm 3 mps 746 mmHg 75%
21:00 +14°C° 0.1 mm 3 mps 746 mmHg 79%
22:00 +14°C° 0.1 mm 3 mps 747 mmHg 84%
23:00 +13°C° 0.1 mm 4 mps 747 mmHg 88%

Day after tomorrow, 12 July, Sunday

Time Temperature Precipitation Wind Pressure Humidity
00:00 +12°C° 0 mm 3 mps 747 mmHg 87%
01:00 +12°C° 0 mm 3 mps 747 mmHg 86%
02:00 +12°C° 0 mm 3 mps 747 mmHg 86%
03:00 +11°C° 0.4 mm 3 mps 747 mmHg 89%
04:00 +12°C° 0.4 mm 2 mps 747 mmHg 92%
05:00 +12°C° 0.4 mm 2 mps 747 mmHg 95%
06:00 +12°C° 1 mm 2 mps 747 mmHg 96%
07:00 +12°C° 1 mm 2 mps 748 mmHg 96%
08:00 +12°C° 1 mm 2 mps 748 mmHg 96%
09:00 +12°C° 1 mm 2 mps 748 mmHg 94%
10:00 +13°C° 1 mm 2 mps 748 mmHg 92%
11:00 +13°C° 1 mm 2 mps 748 mmHg 91%
12:00 +14°C° 0.1 mm 2 mps 748 mmHg 83%
13:00 +15°C° 0.1 mm 2 mps 748 mmHg 76%
14:00 +17°C° 0.1 mm 2 mps 748 mmHg 68%
15:00 +17°C° 0 mm 2 mps 748 mmHg 68%
16:00 +17°C° 0 mm 2 mps 748 mmHg 68%
17:00 +17°C° 0 mm 2 mps 747 mmHg 68%
18:00 +16°C° 0 mm 2 mps 747 mmHg 73%
19:00 +16°C° 0 mm 2 mps 747 mmHg 79%
20:00 +15°C° 0 mm 1 mps 747 mmHg 84%
21:00 +14°C° 0.1 mm 2 mps 747 mmHg 87%
22:00 +14°C° 0.1 mm 2 mps 747 mmHg 90%
23:00 +13°C° 0.1 mm 2 mps 747 mmHg 92%

13 July, Monday

Time Temperature Precipitation Wind Pressure Humidity
00:00 +13°C° 0 mm 2 mps 747 mmHg 93%
01:00 +11°C° 0 mm 3 mps 747 mmHg 93%
02:00 +11°C° 0 mm 3 mps 747 mmHg 93%
03:00 +10°C° 0 mm 3 mps 747 mmHg 93%
04:00 +10°C° 0 mm 3 mps 747 mmHg 93%
05:00 +9°C° 0 mm 3 mps 747 mmHg 92%
06:00 +10°C° 0 mm 3 mps 747 mmHg 89%
07:00 +12°C° 0 mm 3 mps 747 mmHg 85%
08:00 +13°C° 0 mm 3 mps 747 mmHg 81%
09:00 +14°C° 0 mm 3 mps 747 mmHg 75%
10:00 +16°C° 0 mm 3 mps 746 mmHg 69%
11:00 +18°C° 0 mm 3 mps 746 mmHg 64%
12:00 +18°C° 0 mm 3 mps 746 mmHg 63%
13:00 +18°C° 0 mm 3 mps 746 mmHg 62%
14:00 +18°C° 0 mm 4 mps 746 mmHg 62%
15:00 +19°C° 0 mm 3 mps 745 mmHg 61%
16:00 +19°C° 0 mm 3 mps 745 mmHg 61%
17:00 +19°C° 0 mm 3 mps 745 mmHg 61%
18:00 +18°C° 0 mm 2 mps 745 mmHg 67%
19:00 +16°C° 0 mm 2 mps 744 mmHg 73%
20:00 +15°C° 0 mm 2 mps 744 mmHg 79%
21:00 +14°C° 0 mm 2 mps 744 mmHg 81%
22:00 +13°C° 0 mm 2 mps 744 mmHg 82%
23:00 +12°C° 0 mm 2 mps 744 mmHg 84%

14 July, Tuesday

Time Temperature Precipitation Wind Pressure Humidity
00:00 +12°C° 0 mm 2 mps 744 mmHg 86%
01:00 +10°C° 0 mm 2 mps 744 mmHg 87%
02:00 +10°C° 0 mm 2 mps 744 mmHg 89%
03:00 +10°C° 0 mm 2 mps 744 mmHg 90%
04:00 +10°C° 0 mm 2 mps 744 mmHg 91%
05:00 +10°C° 0 mm 2 mps 744 mmHg 92%
06:00 +12°C° 0 mm 3 mps 744 mmHg 87%
07:00 +14°C° 0 mm 3 mps 744 mmHg 83%
08:00 +17°C° 0 mm 3 mps 744 mmHg 78%
09:00 +18°C° 0 mm 3 mps 744 mmHg 71%
10:00 +19°C° 0 mm 4 mps 744 mmHg 65%
11:00 +21°C° 0 mm 4 mps 744 mmHg 59%
12:00 +21°C° 0 mm 4 mps 744 mmHg 58%
13:00 +22°C° 0 mm 4 mps 743 mmHg 57%
14:00 +22°C° 0 mm 4 mps 743 mmHg 56%
15:00 +22°C° 0.1 mm 4 mps 743 mmHg 60%
16:00 +21°C° 0.1 mm 4 mps 743 mmHg 64%
17:00 +21°C° 0.1 mm 4 mps 743 mmHg 68%
18:00 +19°C° 0.1 mm 3 mps 743 mmHg 73%
19:00 +18°C° 0.1 mm 3 mps 743 mmHg 79%
20:00 +17°C° 0.1 mm 2 mps 743 mmHg 85%
21:00 +15°C° 0 mm 2 mps 743 mmHg 86%
22:00 +14°C° 0 mm 2 mps 743 mmHg 88%
23:00 +13°C° 0 mm 2 mps 743 mmHg 89%

15 July, Wednesday

Time Temperature Precipitation Wind Pressure Humidity
00:00 +12°C° 0 mm 2 mps 743 mmHg 90%
01:00 +12°C° 0 mm 2 mps 743 mmHg 91%
02:00 +10°C° 0 mm 2 mps 743 mmHg 92%
03:00 +10°C° 0 mm 2 mps 743 mmHg 91%
04:00 +10°C° 0 mm 2 mps 743 mmHg 91%
05:00 +10°C° 0 mm 2 mps 743 mmHg 91%
06:00 +12°C° 0 mm 2 mps 743 mmHg 85%
07:00 +14°C° 0 mm 2 mps 743 mmHg 80%
08:00 +16°C° 0 mm 3 mps 743 mmHg 74%
09:00 +17°C° 0 mm 3 mps 743 mmHg 68%
10:00 +19°C° 0 mm 3 mps 743 mmHg 62%
11:00 +20°C° 0 mm 3 mps 743 mmHg 56%
12:00 +20°C° 0 mm 3 mps 743 mmHg 55%
13:00 +21°C° 0 mm 3 mps 743 mmHg 55%
14:00 +21°C° 0 mm 3 mps 743 mmHg 54%
15:00 +21°C° 0 mm 3 mps 743 mmHg 56%
16:00 +21°C° 0 mm 3 mps 742 mmHg 58%
17:00 +21°C° 0 mm 3 mps 742 mmHg 60%
18:00 +20°C° 0 mm 2 mps 742 mmHg 66%
19:00 +18°C° 0 mm 2 mps 742 mmHg 72%
20:00 +16°C° 0 mm 1 mps 742 mmHg 78%
21:00 +15°C° 0 mm 1 mps 742 mmHg 80%
22:00 +14°C° 0 mm 1 mps 742 mmHg 81%
23:00 +13°C° 0 mm 1 mps 742 mmHg 83%
Show more